Other Public Products
Issued by NWS Grand Forks, ND

Home | Current Version | Previous Version | Text Only | Print | Product List | Glossary On
Versions: 1 2 3 4 5 6 7 8 9 10 11 12 13 14 15 16 17 18 19 20 21 22 23 24 25 26 27 28 29 30 31 32 33 34 35 36 37 38 39 40 41 42 43 44 45 46 47 48 49 50
000
FPUS83 KFGF 100510
OPUFGF
PRAIRIE TO PINES WEATHER ROUNDUP
NATIONAL WEATHER SERVICE EASTERN NORTH DAKOTA/GRAND FORKS ND
1200 AM CDT THU JUL 10 2014

 **SATELLITE DATA USED TO AUGMENT SKY COVER AT AUTOMATED STATIONS**
 *****  WEATHER ACROSS EASTERN NORTH DAKOTA  *****

CITY           SKY/WX    TMP DP  RH WIND       PRES   REMARKS
GRAND FORKS    CLEAR     62  53  72 SE6       29.97S
GRAND FORKS AF CLEAR     59  52  79 S5        29.98S
GRAND CITY NWS   N/A     61 N/A N/A SE3         N/A
BUXTON         NOT AVBL
DEVILS LAKE    CLEAR     64  52  63 SE10      29.94F
FARGO          NOT AVBL
WAHPETON ARPT  CLEAR     63  50  63 CALM      30.00S
$$

 *****  WEATHER ACROSS CENTRAL AND WESTERN NORTH DAKOTA  *****

CITY           SKY/WX    TMP DP  RH WIND       PRES   REMARKS
JAMESTOWN      CLEAR     62  54  74 SE7       29.97S
BISMARCK       CLEAR     64  59  83 SE6       29.95S HAZE
MINOT          CLEAR     63  58  83 SE6       29.90S
MINOT AFB      CLEAR     62  62  99 SE8       29.89F
GARRISON         N/A     64  60  87 SE7       29.92S
WILLISTON      CLEAR     72  59  63 SE10      29.85F
DICKINSON      CLEAR     64  57  78 S10       29.92S
HETTINGER      CLEAR     63  55  75 SE8       29.96S
$$

 *****  OTHER OBSERVATIONS NORTHEAST NORTH DAKOTA  *****

CITY           SKY/WX    TMP DP  RH WIND       PRES   REMARKS
WALHALLA       NOT AVBL
LANGDON        FAIR      54  50  87 SE9       29.97S
CAVALIER       FAIR      61  54  77 S5        29.96S HAZE
GRAFTON        FAIR      59  50  72 SE6       29.96F
CANDO          FAIR      57  54  88 SE7       29.95F
FORT TOTTEN    NOT AVBL
ROLLA          CLOUDY    59  55  88 S7        29.95F
RUGBY          FAIR      63  57  82 SE9       29.92F
 ***** THE ABOVE OBSERVATIONS ARE NON NWS ARE NOT QUALITY
        CONTROLLED AND MAY MIS-REPORT RAIN FOR SNOW...
$$

 *****  OTHER OBSERVATIONS SOUTHEAST NORTH DAKOTA *****

CITY           SKY/WX    TMP DP  RH WIND       PRES   REMARKS
COOPERSTOWN    NOT AVBL
VALLEY CITY    MOCLDY    61  55  82 SE6       29.99S
OAKES          NOT AVBL
GWINNER        CLEAR     63  59  88 SE6       30.00S
SHEYENNE NWR     N/A     56  52  87 E3        29.95
BUFFALO        NOT AVBL
WYNDMERE       NOT AVBL
 ***** THE ABOVE OBSERVATIONS ARE NON NWS ARE NOT QUALITY
       CONTROLLED AND MAY MIS-REPORT RAIN FOR SNOW...
$$

  *****  WEATHER ACROSS NORTHERN MINNESOTA  *****

CITY           SKY/WX    TMP DP  RH WIND       PRES   REMARKS
FLAG ISLAND    CLEAR     66  57  72 SW8       29.96S
WARROAD        CLEAR     57  54  88 CALM      29.99S
ROSEAU         CLEAR     55  52  88 CALM      29.99S
HALLOCK        CLEAR     61  54  77 SE7       29.96F
THF RVR FALLS  CLEAR     57  52  82 CALM      29.99S
HALSTAD          N/A     58  52  80 SE6         N/A
FOSSTON        CLEAR     54  48  82 CALM      30.01F
BAUDETTE       NOT AVBL
WASKISH        NOT AVBL
CROOKSTON      CLEAR     61  54  77 SE3       29.99S
$$
  *****  WEATHER ACROSS CENTRAL AND WEST MINNESOTA  *****

CITY           SKY/WX    TMP DP  RH WIND       PRES   REMARKS
BEMIDJI        CLEAR     53  50  90 CALM      30.01S
PARK RAPIDS    CLEAR     55  53  93 W3        30.01S
WADENA         NOT AVBL
DETROIT LAKES  CLEAR     61  54  77 CALM      30.03R
MOORHEAD       NOT AVBL
FERGUS FALLS   CLEAR     63  52  67 E3        30.01R
ELBOW LAKE     FAIR      64  54  68 E3        30.01R
MORRIS MN      CLEAR     57  55  94 E5        30.00S
STAPLES        CLEAR     57  54  88 CALM      30.02S
WHEATON        CLEAR     57  52  82 E6        30.02R
$$
  *****  WEATHER ELSEWHERE ACROSS MINNESOTA  *****

CITY           SKY/WX    TMP DP  RH WIND       PRES   REMARKS
DULUTH         CLEAR     58  49  72 CALM      30.03S
INTRNTL FALLS  CLEAR     51  49  92 CALM      30.00S
ELY            PTCLDY    48  46  93 CALM      30.03S
CLOQUET        CLEAR     55  50  82 CALM      30.03S
BRAINERD       PTCLDY    64  56  75 CALM      30.02S
HIBBING        PTCLDY    53  51  93 CALM      30.02S
ALEXANDRIA     NOT AVBL
SAINT CLOUD    PTCLDY    60  57  89 CALM      30.01R
MINNEAPOLIS    CLEAR     67  56  67 SE6       30.02R
$$

  *****  WEATHER ACROSS SOUTH DAKOTA  *****

CITY           SKY/WX    TMP DP  RH WIND       PRES   REMARKS
SIOUX FALLS    CLEAR     67  59  75 E7        30.01R
BROOKINGS      NOT AVBL
WATERTOWN      NOT AVBL
HURON          CLEAR     66  58  75 SE6       29.98R
SISSETON         N/A     59  57  93 SW3       29.99S
ABERDEEN       CLEAR     60  55  83 SE6       29.98F
MITCHELL       CLEAR     67  60  78 S7        29.99R
PIERRE         CLEAR     62  56  80 SE9       29.96R
MOBRIDGE       CLEAR     66  58  75 SE10      29.94F
RAPID CITY     CLEAR     61  55  81 SE7       29.98S
$$

  *****  SOME WEATHER IN NEARBY STATES *****

CITY           SKY/WX    TMP DP  RH WIND       PRES   REMARKS
GLASGOW MT     CLEAR     70  54  56 E10       29.75F
GREAT FALLS MT CLOUDY    73  46  38 W6        29.82S
CHEYENNE WY    CLEAR     69  41  36 SW5       30.09F
SCOTTSBLUFF NE CLEAR     69  62  78 E7        29.95R
OMAHA NE       NOT AVBL
DES MOINES IA  PTCLDY    69  60  73 S7        30.04S
DAVENPORT IA   HAZE      63  57  81 S3        30.08R VSB 1
CHICAGO IL     CLEAR     65  54  67 CALM      30.06R
EAU CLAIRE WI  CLEAR     63  56  78 SE3       30.04R
LA CROSSE WI   CLEAR     63  57  81 SE7       30.04R
$$

  *****  SOME NATIONAL WEATHER *****

CITY           SKY/WX    TMP DP  RH WIND       PRES   REMARKS
LA GUARDIA NY  CLOUDY    77  63  61 CALM      29.95S
RALEIGH NC     CLOUDY    75  69  81 SW5       30.04S
ATLANTA GA     MOCLDY    73  68  84 S5        30.07F
NEW ORLEANS LA MOCLDY    75  71  87 S6        30.07S
OKLAHOMA CITY  NOT AVBL
ALBUQUERQUE NM CLOUDY    74  55  51 SE6       30.19R
SALT LAKE CITY LGT RAIN  77  54  44 S23G32    29.97R
LOS ANGELES CA MOCLDY    67  61  81 W9        29.95R
BOISE ID       CLEAR     78  51  38 NW3       29.89R
SEATTLE WA     CLEAR     68  55  63 W5        29.95R
$$

*** WEATHER ACROSS MANITOBA...SASKATCHEWAN AND ONTARIO ***
                ***ONTARIO***

CITY           SKY/WX    TMP DP  RH WIND       PRES   REMARKS
GERALDTON      NOT AVBL
THUNDER BAY    NOT AVBL
SIOUX LOOKOUT  NOT AVBL
TORONTO        NOT AVBL
BIG TROUT LK   NOT AVBL
PICKLE LAKE    NOT AVBL
DRYDEN         NOT AVBL
KENORA         NOT AVBL
$$
                *** MANITOBA***

CITY           SKY/WX    TMP DP  RH WIND       PRES   REMARKS
BRANDON        NOT AVBL
DAUPHIN        NOT AVBL
ISLAND LAKE    NOT AVBL
PILOT MOUND    NOT AVBL
THE PAS        NOT AVBL
THOMPSON       NOT AVBL
WINNIPEG       NOT AVBL
$$
                ***SASKATCHEWAN***

CITY           SKY/WX    TMP DP  RH WIND       PRES   REMARKS
ESTEVAN        NOT AVBL
KINDERSLEY     NOT AVBL
LLOYDMINSTER   LGT RAIN  61  57  88 VRB10     29.71R
PRINCE ALBERT  NOT AVBL
REGINA         NOT AVBL
YORKTON        NOT AVBL
N. BATTLEFORD  NOT AVBL
LA RONGE       NOT AVBL



USA.gov is the U.S. government's official web portal to all federal, state and local government web resources and services.